Home   Weather   Minden   Past weeks

Flag for Germany Past Weather in Minden, North Rhine-Westphalia, Germany — Yesterday and Last 2 Weeks

Now
59 °F

Rain. More clouds than sun.


Feels Like: 59 °F
Forecast: 56 / 62 °F
Wind: 5 mph from Southwest

Location: Bueckeburg

Current Time: Jul 24, 2017 at 11:00:45 am

Latest Report: Jul 24, 2017 at 10:29 am


Visibility: N/A

Pressure: 29.80 "Hg

Humidity: 88%

Dew Point: 55 °F

Location of MindenLocation

Past Weather in Minden — Graph

°F

Minden Temperature Yesterday

Maximum temperature yesterday: 72 °F (at 3:20 pm)
Minimum temperature yesterday: 61 °F (at 10:20 pm)
Average temperature yesterday: 66 °F

High & Low Weather Summary for the Past Weeks

 TemperatureHumidityPressure
High90 °F (Jul 19, 5:20 pm)100% (Jul 10, 7:54 am)30.21 "Hg (Jul 10, 7:54 am)
Low52 °F (Jul 13, 4:20 am)38% (Jul 14, 2:20 pm)29.68 "Hg (Jul 12, 12:20 pm)
Average65 °F79%29.94 "Hg
* Reported Jul 9 9:20 am — Jul 24 9:20 am, Minden. Weather by CustomWeather, © 2017

Note: Actual official high and low records may vary slightly from our data, if they occured in-between our weather recording intervals... More about our weather records

Advertising

Minden Weather History for the Previous 24 Hours

Scroll right to see more
 ConditionsComfort  
Time TempWeatherWind HumidityBarometerVisibility
9:20 am
Mon, Jul 24
61 °FLight rain. Mostly cloudy.5 mph83%29.80 "HgN/A
8:20 am61 °FLight rain. More clouds than sun.6 mph77%29.80 "HgN/A
7:20 am61 °FPartly sunny.3 mph77%29.80 "HgN/A
6:20 am59 °FPartly sunny.5 mph88%29.80 "HgN/A
5:20 am59 °FPassing clouds.5 mph82%29.83 "HgN/A
4:20 am59 °FPartly cloudy.5 mph82%29.83 "HgN/A
3:20 am59 °FPartly cloudy.6 mph82%29.86 "HgN/A
2:20 am59 °FPartly cloudy.2 mph88%29.86 "HgN/A
1:20 am59 °FPassing clouds.3 mph88%29.89 "HgN/A
12:20 am59 °FPassing clouds.5 mph94%29.89 "HgN/A
11:20 pm
Sun, Jul 23
61 °FSprinkles. Partly cloudy.10 mph88%29.92 "HgN/A
10:20 pm61 °FPassing clouds.8 mph72%29.92 "HgN/A
9:20 pm64 °FScattered clouds.9 mph64%29.89 "HgN/A
8:20 pm68 °FScattered showers. Broken clouds.9 mph56%29.89 "HgN/A
7:20 pm68 °FScattered clouds.7 mph49%29.89 "HgN/A
6:20 pm66 °FPartly sunny.10 mph60%29.89 "HgN/A
5:20 pm70 °FMild.14 mph50%29.89 "Hg3 mi
4:20 pm70 °FMild.15 mph50%29.92 "Hg3 mi
3:20 pm72 °FMild.16 mph44%29.89 "Hg3 mi
2:20 pm70 °FMild.15 mph50%29.89 "Hg3 mi
1:20 pm68 °FMild.16 mph56%29.92 "Hg2 mi
12:20 pm66 °FMild.18 mph60%29.92 "Hg2 mi
11:20 am66 °FMild.17 mph64%29.89 "Hg2 mi
Weather by CustomWeather, © 2017

See weather overviewHow to use our weather pages